STARLINK P (59935 NORAD) Tracking and Keplerian Element Data

This shows tracking and keplerian element data for the satellite.

Feedback or suggestion? Click here.




ElementValue
Catalog59935
NameSTARLINK P
Epoch Orbit233
Epoch Day160.16667824
Epoch Year2024
RAAN22.4225
Inclination43.0029
Eccentricity0.000194
Argument of Perigee280.0798
Mean Anonmoly165.847
Mean Motion15.93059961
Decay Rate-0.01017721
L11 59935U 24106P 24160.16667824 -.01017721 31530-3 -27961-2 0 9990
L22 59935 43.0029 22.4225 0001940 280.0798 165.8470 15.93059961 2333



Live tracking and technical data element details for STARLINK P (NORAD 59935). STARLINK P can be tracked NOW for your location showing map with azimuth and elevation plus other details from your city location.







IsCatalogInMostPopularTable: catalog: 59935, numindb: 12
Update: records affected: 1



GetName: 59935 STARLINK P

Hit Count: updated at: Thu, 25 Jul 2024 00:48:57 GMT